Back to catalog

STARLINK-37470

AliveCommunicationsSSO
NORAD 68820·PAYLOAD·🇺🇸 United States

Launched Apr 23, 2026 from Vandenberg Space Force Base

Loading…

Next Passes (next 24 hours)

TLE

FreshSource: CelesTrak SupGP

Epoch: Sep 14, 2026, 23:02 UTC

1 68820C 26089U   26257.96020833  .00086604  00000+0  26891-2 0  2570
2 68820  97.2849 103.8483 0002221  92.2832 247.7216 15.33385789    17

Track STARLINK-37470 in real time with AllMySat

Download on the App Store